Time,TemperatureF,DewpointF,PressureIn,WindDirection,WindDirectionDegrees,WindSpeedMPH,WindSpeedGustMPH,Humidity,HourlyPrecipIn,Conditions,Clouds,dailyrainin,SoftwareType,DateUTC
2013-05-11 01:02:00,73.0,-99.9,-100.00,WNW,301,3.0,8.0,-999,-99.99,,,-99.99,,2013-05-11 08:02:00,
2013-05-11 01:12:00,73.0,-99.9,-100.00,WNW,301,3.0,8.0,-999,-99.99,,,-99.99,,2013-05-11 08:12:00,
2013-05-11 02:01:00,72.0,-99.9,-100.00,NW,324,5.0,8.0,-999,-99.99,,,-99.99,,2013-05-11 09:01:00,
2013-05-11 02:12:00,72.0,-99.9,-100.00,NW,324,5.0,8.0,-999,-99.99,,,-99.99,,2013-05-11 09:12:00,
2013-05-11 03:03:00,65.0,-99.9,-100.00,WSW,240,3.0,3.0,-999,-99.99,,,-99.99,,2013-05-11 10:03:00,
2013-05-11 03:12:00,65.0,-99.9,-100.00,WSW,240,3.0,3.0,-999,-99.99,,,-99.99,,2013-05-11 10:12:00,
2013-05-11 04:03:00,65.0,-99.9,-100.00,South,185,2.0,3.0,-999,-99.99,,,-99.99,,2013-05-11 11:03:00,
2013-05-11 04:12:00,65.0,-99.9,-100.00,South,185,2.0,3.0,-999,-99.99,,,-99.99,,2013-05-11 11:12:00,
2013-05-11 05:01:00,62.0,-99.9,-100.00,South,172,3.0,3.0,-999,-99.99,,,-99.99,,2013-05-11 12:01:00,
2013-05-11 05:12:00,62.0,-99.9,-100.00,South,172,3.0,3.0,-999,-99.99,,,-99.99,,2013-05-11 12:12:00,
2013-05-11 06:02:00,62.0,-99.9,-100.00,SE,142,10.0,14.0,-999,-99.99,,,-99.99,,2013-05-11 13:02:00,
2013-05-11 06:11:00,62.0,-99.9,-100.00,SE,142,10.0,14.0,-999,-99.99,,,-99.99,,2013-05-11 13:11:00,
2013-05-11 07:02:00,64.0,-99.9,-100.00,SE,140,6.0,9.0,-999,-99.99,,,-99.99,,2013-05-11 14:02:00,
2013-05-11 07:11:00,64.0,-99.9,-100.00,SE,140,6.0,9.0,-999,-99.99,,,-99.99,,2013-05-11 14:11:00,
2013-05-11 09:03:00,71.0,-99.9,-100.00,SE,138,7.0,9.0,-999,-99.99,,,-99.99,,2013-05-11 16:03:00,
2013-05-11 09:12:00,71.0,-99.9,-100.00,SE,138,7.0,9.0,-999,-99.99,,,-99.99,,2013-05-11 16:12:00,
2013-05-11 10:02:00,75.0,-99.9,-100.00,SE,143,7.0,9.0,-999,-99.99,,,-99.99,,2013-05-11 17:02:00,
2013-05-11 10:12:00,75.0,-99.9,-100.00,SE,143,7.0,9.0,-999,-99.99,,,-99.99,,2013-05-11 17:12:00,
2013-05-11 12:02:00,85.0,-99.9,-100.00,SSW,198,3.0,8.0,-999,-99.99,,,-99.99,,2013-05-11 19:02:00,
2013-05-11 12:11:00,85.0,-99.9,-100.00,SSW,198,3.0,8.0,-999,-99.99,,,-99.99,,2013-05-11 19:11:00,
2013-05-11 13:02:00,89.0,-99.9,-100.00,NE,34,3.0,9.0,-999,-99.99,,,-99.99,,2013-05-11 20:02:00,
2013-05-11 13:12:00,89.0,-99.9,-100.00,NE,34,3.0,9.0,-999,-99.99,,,-99.99,,2013-05-11 20:12:00,
2013-05-11 14:02:00,91.0,-99.9,-100.00,East,86,8.0,14.0,-999,-99.99,,,-99.99,,2013-05-11 21:02:00,
2013-05-11 14:12:00,91.0,-99.9,-100.00,East,86,8.0,14.0,-999,-99.99,,,-99.99,,2013-05-11 21:12:00,
2013-05-11 15:03:00,91.0,-99.9,-100.00,ESE,122,13.0,18.0,-999,-99.99,,,-99.99,,2013-05-11 22:03:00,
2013-05-11 15:13:00,91.0,-99.9,-100.00,ESE,122,13.0,18.0,-999,-99.99,,,-99.99,,2013-05-11 22:13:00,
2013-05-11 16:02:00,93.0,-99.9,-100.00,ESE,107,9.0,14.0,-999,-99.99,,,-99.99,,2013-05-11 23:02:00,
2013-05-11 16:12:00,93.0,-99.9,-100.00,ESE,107,9.0,14.0,-999,-99.99,,,-99.99,,2013-05-11 23:12:00,
2013-05-11 19:02:00,92.0,-99.9,-100.00,East,84,6.0,9.0,-999,-99.99,,,-99.99,,2013-05-12 02:02:00,
2013-05-11 19:12:00,92.0,-99.9,-100.00,East,84,6.0,9.0,-999,-99.99,,,-99.99,,2013-05-12 02:12:00,
2013-05-11 20:02:00,89.0,-99.9,-100.00,ESE,123,3.0,7.0,-999,-99.99,,,-99.99,,2013-05-12 03:02:00,
2013-05-11 20:12:00,89.0,-99.9,-100.00,ESE,123,3.0,7.0,-999,-99.99,,,-99.99,,2013-05-12 03:12:00,
2013-05-11 21:03:00,-999.0,-99.9,-100.00,SE,138,3.0,6.0,-999,-99.99,,,-99.99,,2013-05-12 04:03:00,
2013-05-11 21:12:00,86.0,-99.9,-100.00,SE,138,3.0,6.0,-999,-99.99,,,-99.99,,2013-05-12 04:12:00,
2013-05-11 23:02:00,78.0,-99.9,-100.00,South,175,2.0,3.0,-999,-99.99,,,-99.99,,2013-05-12 06:02:00,
2013-05-11 23:11:00,78.0,-99.9,-100.00,South,175,2.0,3.0,-999,-99.99,,,-99.99,,2013-05-12 06:11:00,